GFSGL_925_spd_000.txt.gz
Wind_Speed
10 8 7 6 6 7 5 6 6 6 7 6 4 3 4 6 7 6 7 5 8 10 10 10 16 18 22 20 24 24 23 24 15 20 26 28 27 25 22 19 17 13 11
11 8 8 6 7 7 6 7 5 6 6 6 5 6 7 8 8 7 10 9 10 10 11 11 15 17 20 19 20 21 25 27 24 22 21 23 29 28 23 19 15 11 9
10 8 8 7 6 5 7 7 6 7 8 8 7 9 11 10 10 10 10 12 12 11 11 15 18 19 20 21 20 24 25 27 28 20 15 21 28 26 20 15 12 12 10
11 10 12 7 6 6 9 9 8 8 10 10 9 11 12 11 9 9 12 15 14 11 12 15 18 21 23 23 23 22 25 27 29 25 22 23 23 19 17 16 13 10 8
13 13 12 8 8 9 14 13 11 11 10 11 12 13 12 9 9 10 12 14 15 14 14 14 15 19 21 23 26 24 27 26 24 21 18 18 16 18 15 12 11 9 6
15 15 13 11 10 11 14 15 13 12 10 11 10 12 13 10 9 9 8 13 14 15 16 15 15 15 18 22 21 23 24 27 23 18 14 16 15 16 14 14 14 8 4
17 16 15 14 12 12 14 13 13 11 12 12 10 9 10 10 11 10 8 11 15 16 17 19 21 18 18 18 20 22 18 15 19 22 22 15 14 17 16 14 14 11 7
19 18 17 17 16 14 13 12 10 10 13 14 9 8 11 12 12 11 10 14 16 17 19 23 25 26 25 23 21 18 14 10 10 10 5 7 9 16 16 13 14 13 11
22 20 18 17 17 19 16 12 9 11 14 14 10 10 12 14 15 14 15 16 16 18 20 21 23 20 18 16 15 12 7 7 9 9 7 6 8 14 15 13 14 15 5
26 24 21 17 19 22 18 14 12 11 12 12 11 10 11 14 15 14 14 19 21 20 18 20 22 20 20 13 8 2 8 10 11 13 11 7 7 14 13 12 11 16 10
27 25 22 19 20 20 21 19 16 12 13 11 12 12 11 13 14 14 13 16 18 19 19 19 18 17 18 13 3 4 10 13 12 15 16 14 12 13 12 11 11 11 14
27 27 24 22 19 19 20 21 19 17 15 13 12 11 11 12 13 14 14 13 14 16 18 17 16 17 15 9 7 9 5 11 15 16 17 16 16 16 15 15 15 14 12
26 28 26 25 21 21 21 23 22 21 19 16 14 12 11 12 13 13 13 12 10 11 12 14 16 17 16 14 13 12 8 12 14 17 18 18 17 19 21 23 23 22 21
29 30 29 25 24 24 23 24 25 24 22 20 18 16 14 14 13 15 15 14 14 14 13 14 14 15 16 15 14 13 14 14 15 16 18 19 22 24 26 26 25 23 21
32 32 30 28 29 25 25 26 27 25 25 25 23 20 20 18 18 16 18 17 16 15 14 15 16 17 17 16 16 17 16 15 14 16 19 25 27 27 24 23 23 21 19
29 30 32 31 29 30 27 24 26 28 28 25 23 25 23 19 20 20 19 17 17 19 19 18 19 20 21 21 20 19 17 17 17 20 25 27 29 28 26 25 22 22 25
33 31 33 32 31 30 29 28 23 23 23 26 25 24 25 22 21 21 23 22 20 21 22 22 22 25 26 26 24 23 22 19 17 21 25 27 29 30 31 24 21 24 21
38 38 37 34 30 28 30 29 28 24 23 23 25 24 21 24 21 21 24 24 23 25 25 24 27 27 29 30 29 28 25 22 23 24 27 29 30 32 29 26 28 27 22
37 37 37 36 35 32 31 29 29 26 26 26 25 25 25 23 22 22 23 28 29 29 31 30 28 28 29 30 32 32 31 28 26 27 29 30 31 32 27 29 28 27 25
37 38 39 34 32 32 30 28 25 26 25 28 28 31 27 25 25 26 26 27 28 30 31 33 34 32 29 28 30 31 31 29 26 27 31 33 33 34 32 32 32 30 23
32 37 40 33 32 33 30 29 29 27 27 28 34 32 31 31 32 32 30 30 31 32 32 33 33 34 35 33 29 30 31 33 30 30 33 34 34 33 32 32 24 21 18
33 34 37 34 30 29 31 30 30 28 29 29 34 34 32 30 31 32 34 35 34 33 34 36 36 36 36 35 34 30 30 31 31 32 35 36 34 30 28 25 24 18 12
26 32 32 29 30 30 30 29 28 29 29 32 32 34 32 33 34 35 35 35 35 35 34 33 35 37 36 36 36 37 38 38 39 38 42 43 41 40 34 24 20 19 14
31 28 33 30 29 29 29 29 31 33 31 32 35 36 35 35 36 36 36 36 36 35 35 35 35 35 36 37 36 35 37 37 36 39 45 48 45 44 38 30 20 13 13
26 27 29 29 28 30 27 27 31 33 33 34 34 35 38 38 36 34 33 34 34 34 35 35 34 32 32 32 31 31 32 33 33 38 42 44 46 41 37 31 26 22 19
26 28 24 27 28 28 28 28 32 32 33 34 35 34 34 37 38 37 34 31 30 30 29 27 27 26 26 26 26 27 30 33 36 43 46 48 47 40 33 31 30 25 22

GFSGL_925_spd_003.txt.gz
Wind_Speed
9 8 8 7 8 7 7 7 8 7 7 4 3 4 3 5 4 4 4 4 4 4 3 5 7 10 9 9 12 20 22 24 13 19 30 34 38 34 30 26 22 19 16
10 7 7 7 8 8 7 7 7 8 7 5 4 5 5 6 6 5 6 6 7 7 7 12 11 14 13 11 14 17 22 29 28 21 27 33 35 33 31 27 21 16 14
9 7 7 6 6 7 8 8 7 9 8 7 6 7 7 7 7 6 7 8 8 8 9 12 13 17 15 15 17 21 24 30 29 26 19 32 31 31 28 24 18 16 15
9 7 8 6 6 7 9 10 9 10 10 8 7 8 8 7 8 9 10 10 9 11 10 11 13 17 15 15 21 23 23 28 27 26 26 26 27 26 24 20 15 12 13
10 9 8 8 7 10 10 10 11 11 10 9 10 9 8 7 7 10 11 11 10 12 11 11 11 12 17 19 23 26 27 26 27 28 25 26 22 21 17 14 13 13 11
12 12 9 10 10 11 11 10 11 11 11 10 10 9 8 7 9 11 11 10 10 12 12 12 14 15 18 20 23 27 29 30 27 25 28 24 22 19 15 17 16 16 9
13 13 11 11 11 12 11 11 10 9 9 9 8 8 8 8 9 8 9 9 10 11 12 13 14 15 17 19 21 23 26 26 27 27 25 23 24 21 18 17 16 13 14
14 15 12 12 11 12 10 9 8 8 8 8 7 8 6 8 9 7 9 10 12 11 12 15 15 15 15 19 22 20 19 20 19 15 18 20 19 22 19 16 15 16 17
16 16 15 14 12 12 10 9 8 10 10 7 6 8 9 11 10 9 11 11 12 12 12 15 17 18 22 22 20 17 15 13 13 8 12 14 16 21 19 17 17 17 12
17 17 16 16 14 13 12 10 8 10 11 8 7 8 11 13 12 11 10 11 13 14 16 20 20 21 19 16 11 9 11 12 15 14 14 14 16 19 16 12 16 13 12
17 17 15 15 13 15 13 12 12 11 11 10 9 8 10 13 14 12 11 15 14 16 16 15 14 18 15 11 7 11 11 15 16 14 12 11 17 18 14 11 10 8 10
17 18 16 14 13 15 16 14 12 14 13 11 11 10 10 12 14 14 14 14 15 17 16 16 18 18 16 9 12 13 14 14 14 14 12 10 11 11 11 11 13 11 8
18 18 18 16 13 14 16 15 13 12 13 12 12 10 10 10 13 14 14 12 12 10 10 11 15 15 12 7 8 9 9 9 10 12 11 11 11 12 16 17 17 17 19
20 18 19 19 16 13 14 16 15 14 13 13 12 12 12 11 12 13 15 13 11 9 11 13 14 13 12 9 8 10 6 8 9 9 12 12 13 15 15 16 19 18 18
22 19 19 19 21 17 15 15 16 16 17 14 13 14 14 13 14 16 16 14 12 12 12 12 10 9 9 9 9 9 9 10 10 11 14 15 16 16 15 15 16 14 11
24 22 22 21 20 20 19 15 19 18 22 20 18 15 15 14 15 15 15 15 14 14 11 11 12 12 13 13 12 12 11 13 11 12 14 16 17 18 18 16 14 11 15
29 24 22 23 22 22 21 20 17 20 22 24 23 20 18 15 17 17 17 16 15 15 13 14 15 15 16 15 14 14 14 13 12 13 14 16 17 18 20 17 15 15 15
32 32 27 25 23 23 23 22 21 19 18 18 25 24 21 22 19 19 21 21 17 18 15 16 16 16 17 17 17 17 15 14 15 15 15 17 18 19 21 19 18 18 18
32 29 30 26 25 23 22 22 22 21 20 18 15 22 26 22 22 22 21 21 20 20 20 19 18 17 17 18 18 18 19 18 17 16 15 16 18 19 20 18 15 15 15
34 34 33 28 25 24 23 22 21 22 21 20 19 19 19 25 20 22 26 23 22 22 22 22 22 21 20 19 18 18 18 20 20 20 20 21 22 22 20 18 20 26 16
31 29 36 29 28 28 26 24 22 20 20 20 21 20 26 25 25 24 24 24 24 24 24 23 21 22 22 21 20 19 20 21 21 20 17 17 19 22 24 31 35 34 25
29 29 32 32 30 28 29 27 24 22 21 21 21 19 27 28 22 22 23 24 26 26 26 24 24 24 24 24 24 24 23 23 23 25 26 26 27 27 31 30 31 32 30
27 28 28 29 29 30 28 28 27 26 25 23 22 21 21 24 24 23 23 23 24 25 24 24 23 23 23 23 23 24 25 27 31 29 33 37 38 33 32 37 37 38 32
26 27 27 28 29 28 27 28 29 29 28 26 24 23 23 23 25 25 24 22 22 24 26 27 27 27 24 23 22 23 24 23 26 33 33 33 30 36 37 36 37 36 31
23 21 23 25 24 26 27 27 27 27 28 27 25 23 21 21 22 23 23 23 22 22 24 25 25 27 27 28 27 26 25 28 29 30 34 35 42 41 41 41 42 36 32
24 18 17 19 21 20 23 24 26 27 26 26 26 25 23 22 22 22 24 23 22 23 23 23 26 28 28 27 27 25 27 26 28 30 31 37 42 42 42 46 43 37 31

GFSGL_925_spd_006.txt.gz
Wind_Speed
13 12 9 7 8 8 8 9 9 9 9 7 5 3 2 3 3 3 1 3 6 6 6 6 6 7 7 6 5 11 19 22 15 24 40 40 38 36 34 34 27 28 25
13 11 9 7 7 8 8 9 8 9 8 6 5 4 3 2 2 2 6 5 5 6 5 6 8 9 8 11 13 17 24 32 31 21 37 35 33 36 34 31 25 22 20
12 10 8 6 6 7 9 8 9 9 8 6 6 6 5 4 3 6 10 7 5 7 8 6 11 13 12 13 20 24 30 28 26 30 31 31 32 33 30 23 22 20 17
12 9 8 7 6 8 11 9 9 8 8 8 8 8 8 6 6 9 8 8 7 8 7 9 10 10 11 16 24 26 31 31 31 28 29 29 27 24 24 23 20 19 18
12 11 9 7 8 11 12 10 9 10 9 9 11 10 9 7 8 8 7 8 10 12 12 12 10 11 12 15 22 28 29 29 32 30 23 25 24 22 19 19 21 18 15
14 13 11 9 12 12 13 12 11 9 10 10 9 9 9 8 10 9 6 6 9 12 16 15 14 14 12 15 21 25 29 32 31 30 25 25 21 19 19 21 22 19 13
15 15 12 12 13 13 13 13 11 11 10 10 10 9 9 9 10 7 8 5 8 10 13 16 16 16 17 22 21 24 25 25 27 34 32 26 25 23 21 20 19 18 16
16 16 15 15 14 13 13 13 11 10 9 8 8 10 10 9 9 8 8 7 7 10 13 15 18 18 18 20 25 25 25 23 23 24 30 27 21 21 20 19 18 15 19
18 17 16 15 14 13 13 12 11 11 10 7 7 10 12 11 9 10 8 7 9 12 13 13 15 19 19 22 23 25 22 20 19 19 23 23 20 20 20 21 18 20 18
19 19 18 16 16 13 13 12 12 11 10 8 8 10 13 12 11 12 7 10 12 14 15 18 20 24 22 19 19 22 23 19 17 17 21 19 22 21 21 16 19 15 15
20 19 19 17 15 12 11 11 12 11 10 9 9 11 11 13 13 11 10 11 16 16 18 17 18 19 14 12 14 15 18 20 19 19 18 19 18 17 15 11 13 10 15
21 20 19 17 15 15 13 12 11 11 11 12 12 12 12 11 11 10 12 12 13 17 15 16 19 16 11 14 15 20 23 21 18 18 19 20 20 17 13 10 9 6 3
22 21 20 18 16 16 15 14 12 11 11 13 14 13 13 13 11 12 11 12 15 12 16 16 17 15 10 12 16 18 16 15 16 15 15 15 15 13 13 13 13 13 14
24 22 21 21 18 17 17 16 13 12 12 12 13 14 14 14 15 13 12 14 15 12 14 15 17 12 9 11 12 13 11 12 14 13 13 14 14 15 15 15 15 14 15
25 24 23 22 21 19 18 17 16 13 12 13 12 14 15 15 17 18 17 16 14 14 15 14 14 13 12 12 12 11 10 11 11 12 14 14 15 15 15 15 15 15 13
27 26 25 23 23 21 20 15 13 13 16 12 12 12 14 11 18 21 21 17 17 16 15 16 17 17 17 17 16 14 12 12 12 12 13 15 16 17 16 16 16 14 13
27 26 26 24 23 22 22 20 18 15 17 20 16 15 9 14 17 19 20 19 18 18 15 16 17 18 19 20 20 19 17 16 14 15 15 16 16 16 18 17 17 14 12
32 29 26 27 24 24 22 21 20 20 19 17 22 19 17 13 17 20 20 19 17 18 17 17 18 19 19 19 19 19 19 18 18 17 16 17 17 18 18 17 16 16 17
33 30 29 26 25 24 23 21 20 19 19 20 20 18 23 20 19 18 21 20 19 20 21 19 18 19 19 20 20 21 20 20 20 19 19 19 19 20 19 19 19 21 23
32 31 31 26 26 25 24 23 22 21 20 20 20 19 18 21 18 19 23 22 22 22 22 23 22 20 20 21 22 22 23 22 22 23 23 22 22 22 21 21 20 22 24
34 32 34 29 27 27 27 26 25 24 23 22 22 21 24 24 25 25 25 27 27 26 24 24 24 25 24 24 23 23 24 24 26 26 25 25 25 26 25 27 28 28 25
33 32 34 33 28 27 28 28 27 26 25 25 23 23 27 27 25 26 26 26 28 29 28 26 26 26 26 26 26 26 26 26 26 26 26 27 26 26 27 26 24 26 27
33 32 31 34 32 29 28 28 28 28 27 26 25 25 26 27 27 25 24 25 25 27 28 29 28 27 27 27 27 28 28 28 27 27 27 26 26 27 27 28 32 34 33
32 33 33 32 33 31 29 30 30 30 29 28 28 27 25 26 27 28 27 26 26 25 26 28 29 28 27 27 26 27 27 26 25 26 28 30 30 29 29 28 29 28 29
31 30 31 29 29 31 28 27 29 28 29 29 29 29 28 27 26 27 28 29 27 26 26 27 28 29 31 30 28 28 28 30 29 26 26 27 27 28 30 30 34 33 31
27 25 25 25 24 23 23 20 22 23 26 27 28 27 27 27 27 26 25 26 27 27 26 25 27 28 28 29 32 31 30 30 31 31 23 24 26 27 29 29 32 31 34

GFSGL_925_spd_009.txt.gz
Wind_Speed
14 12 13 9 8 7 5 8 7 7 6 5 4 3 2 1 1 2 3 3 5 6 4 6 5 3 4 7 9 9 18 25 17 22 27 34 37 37 37 35 37 28 30
14 12 12 10 5 6 8 9 8 8 6 5 4 4 3 3 0 2 4 3 6 6 6 6 6 6 6 11 15 17 18 34 37 30 26 29 31 34 35 29 28 28 28
14 12 11 7 5 5 7 9 9 8 7 6 5 3 4 6 4 9 7 5 2 5 5 7 10 10 13 18 21 25 24 29 33 40 21 29 31 37 25 31 28 26 24
13 11 10 6 6 8 8 8 9 8 8 6 5 6 6 8 6 8 7 6 3 2 2 9 10 12 17 23 26 27 31 28 33 28 29 28 28 26 29 28 24 23 22
12 11 9 7 8 10 9 9 9 9 7 8 7 7 7 7 7 6 7 9 11 10 9 12 10 12 19 27 33 29 34 31 29 28 24 26 24 23 23 21 23 21 20
13 13 11 11 12 11 9 9 8 9 10 9 7 9 6 8 8 6 9 8 11 12 13 12 14 13 20 24 28 33 32 36 30 29 26 24 22 25 24 25 24 22 14
15 15 14 13 13 12 11 10 10 11 9 10 9 10 8 7 6 5 6 7 11 12 13 14 14 14 18 26 29 30 31 30 32 33 30 27 25 22 27 23 21 18 18
16 16 15 15 14 12 10 10 8 7 6 6 6 10 8 7 7 7 7 8 11 11 14 16 17 18 19 26 31 28 29 25 30 29 32 31 29 28 24 23 23 20 20
17 16 16 15 13 14 12 9 9 9 9 7 8 11 10 8 8 9 6 10 13 14 14 16 16 19 21 24 26 26 28 26 32 34 34 26 28 21 19 21 18 18 18
18 17 16 15 14 12 10 9 9 8 8 11 9 10 12 10 11 9 5 11 14 18 18 17 20 20 21 23 25 27 27 31 35 31 29 22 21 22 21 17 17 17 17
18 18 17 16 15 14 11 9 9 8 8 10 11 10 12 11 12 8 8 11 15 17 20 23 20 19 21 23 26 28 28 29 26 22 24 19 16 15 16 14 18 7 18
19 20 18 17 16 15 12 9 9 8 8 9 12 12 11 10 10 10 9 12 12 18 22 20 18 15 17 19 22 22 25 24 23 23 21 20 18 17 18 11 8 4 5
21 20 19 18 14 15 13 11 10 9 10 13 12 13 13 12 10 11 12 13 11 10 21 18 17 14 14 15 24 26 26 20 21 22 21 21 20 19 18 13 7 8 9
23 21 20 19 16 16 15 13 12 12 11 14 19 14 13 13 14 11 14 15 15 18 21 19 16 12 10 21 25 25 15 17 18 20 21 21 20 18 16 14 12 11 11
23 23 22 21 19 18 16 14 12 11 12 9 11 16 16 14 14 16 18 16 14 16 17 15 13 13 15 15 16 15 14 14 16 18 16 16 16 16 16 16 15 15 12
23 24 23 22 22 20 18 12 7 11 10 2 6 8 12 9 22 20 18 16 11 21 15 16 16 15 16 18 18 16 15 15 13 15 16 17 18 18 17 17 16 17 15
23 23 24 22 23 22 21 19 17 10 15 11 8 6 7 18 19 21 19 15 15 17 15 17 18 18 17 18 18 19 17 17 15 15 16 16 17 17 19 18 18 18 18
27 25 24 25 23 23 22 21 20 21 18 16 15 10 9 18 17 21 22 19 16 17 17 17 17 18 19 20 20 21 22 21 19 18 18 18 18 19 18 19 20 20 18
29 28 28 25 24 23 23 22 22 22 22 21 22 20 17 17 18 22 24 21 19 19 20 19 19 20 20 20 21 21 21 21 21 20 19 18 19 20 21 22 22 22 21
29 29 30 26 25 24 24 23 22 22 22 23 24 25 21 24 19 20 24 23 23 23 24 24 22 21 22 23 23 23 22 22 21 22 22 23 23 25 23 23 23 21 22
30 30 30 29 26 27 26 25 24 23 22 22 24 27 32 29 27 27 27 28 28 26 25 25 26 25 24 24 24 24 25 24 25 25 26 27 25 25 24 22 22 22 21
30 29 32 31 28 27 26 27 26 25 25 24 24 22 38 31 29 29 29 30 31 31 29 26 26 27 27 27 26 26 26 26 27 27 28 27 25 24 24 24 24 23 24
32 32 30 32 29 27 27 27 27 27 26 27 26 24 34 30 27 28 28 28 29 29 30 30 28 28 28 26 26 27 27 27 26 26 26 26 26 26 27 25 25 27 29
33 32 31 31 31 29 27 27 27 28 28 27 25 26 27 29 27 28 27 27 28 28 28 27 29 29 28 27 27 28 30 29 28 28 29 28 28 28 26 26 23 23 23
31 31 29 30 31 30 28 28 29 26 27 26 25 26 26 27 27 28 28 28 26 27 27 27 27 28 30 31 30 30 30 31 32 29 27 29 28 25 24 25 21 23 25
31 29 28 28 29 29 30 28 28 29 27 28 27 26 27 28 28 29 29 30 30 29 29 28 29 30 29 30 34 34 32 30 30 31 28 23 22 24 24 23 24 25 28

GFSGL_925_spd_015.txt.gz
Wind_Speed
22 20 17 15 12 13 11 14 13 13 11 8 5 4 4 5 4 3 4 5 7 5 6 5 7 7 6 7 8 12 15 20 12 11 15 26 33 32 36 47 47 44 42
20 19 17 18 15 11 10 10 10 11 9 7 8 5 5 3 3 3 2 2 3 4 8 5 2 10 9 9 16 23 27 23 28 19 22 24 34 40 35 45 39 43 38
23 21 17 18 14 11 12 11 10 9 7 3 4 6 4 3 5 4 4 2 1 2 3 3 6 10 12 18 23 28 27 28 28 28 25 30 31 41 37 36 41 38 34
23 20 19 17 14 13 13 10 11 9 6 6 9 8 9 6 3 6 5 4 8 8 8 9 11 8 18 24 27 28 33 31 32 30 28 24 31 33 32 35 31 34 32
23 22 19 16 13 14 12 13 11 10 7 8 10 11 7 6 6 5 9 10 10 10 6 10 13 17 23 25 30 28 31 31 30 28 25 26 29 29 27 24 30 29 26
23 23 19 16 16 13 11 9 9 11 10 9 11 13 7 7 9 6 8 10 10 13 15 15 22 21 20 22 31 28 34 38 29 23 22 26 25 29 27 28 27 23 11
23 22 21 18 19 12 13 13 12 10 10 10 12 11 8 5 6 7 8 10 12 13 17 26 27 26 24 28 28 33 28 29 32 30 32 29 30 32 30 26 24 22 18
25 23 21 19 16 13 12 12 10 9 9 11 14 10 9 6 6 8 11 11 14 13 18 25 29 30 31 32 33 32 29 30 29 33 36 29 35 33 31 36 30 20 25
25 24 23 22 19 16 14 13 12 10 9 11 12 10 8 8 7 9 13 16 18 18 19 24 27 31 31 34 34 32 28 28 28 27 32 31 34 32 31 32 24 27 18
26 24 25 25 21 20 17 12 11 11 13 12 13 10 7 11 9 10 15 20 20 20 20 22 25 29 31 34 33 31 27 29 29 30 23 24 28 29 28 26 32 26 22
25 21 26 24 21 21 15 12 12 11 11 14 16 11 11 10 9 10 14 20 22 22 24 27 28 27 28 29 33 33 33 34 33 31 24 26 27 25 25 18 26 29 29
24 23 26 26 25 21 17 14 13 13 16 19 18 14 11 10 10 12 15 18 20 25 26 27 27 27 27 28 30 30 30 33 30 28 22 22 23 23 19 20 24 25 22
24 33 32 28 23 19 18 18 17 17 21 21 19 16 12 10 12 14 16 16 19 23 23 24 24 22 24 25 26 28 31 30 30 27 20 21 20 18 18 13 16 18 22
27 34 30 28 25 20 18 18 18 19 21 20 20 18 15 14 14 15 17 21 20 23 23 22 22 24 22 23 24 29 32 29 29 31 28 23 18 18 18 19 16 14 14
31 32 27 29 28 23 18 16 16 19 23 25 24 24 22 18 17 17 19 24 25 26 25 22 22 22 20 28 32 33 35 30 29 30 30 26 22 23 26 23 19 18 16
29 29 28 28 30 27 21 11 12 12 20 23 23 24 21 19 23 21 18 23 24 25 24 21 21 21 25 28 28 31 30 28 30 29 30 30 29 29 27 26 24 23 22
28 30 30 27 27 26 21 18 17 14 15 25 21 22 22 21 25 25 22 23 24 25 23 20 20 25 29 31 31 30 28 31 28 31 30 31 32 32 30 29 27 25 24
32 33 32 28 28 27 25 23 20 23 18 16 17 26 25 26 26 30 25 24 27 24 23 22 20 23 28 29 30 32 33 30 29 33 36 37 36 33 33 30 31 30 28
34 33 31 30 25 31 28 26 27 25 24 21 19 21 30 30 30 31 29 29 31 30 27 24 25 25 26 29 29 31 29 25 25 21 29 38 39 38 35 33 34 35 32
34 35 33 29 31 28 29 28 25 27 26 27 26 29 34 33 34 34 33 32 32 33 34 31 26 27 29 30 29 34 32 31 29 29 28 30 37 37 36 36 36 36 36
32 36 35 32 30 30 30 27 28 27 26 26 32 35 38 40 35 37 38 36 35 35 35 35 35 32 27 33 35 35 35 38 37 39 38 37 34 40 39 36 36 38 39
27 31 36 31 32 27 29 33 31 31 29 28 27 36 39 41 37 38 39 41 41 38 36 34 36 38 37 33 27 37 39 37 38 40 41 41 42 40 37 38 38 36 38
9 22 28 28 29 33 26 32 34 33 33 32 31 31 44 41 35 37 39 43 44 43 43 37 33 36 35 35 37 36 34 43 41 39 36 35 38 43 42 37 35 35 33
18 17 14 29 28 28 30 30 32 37 36 35 32 35 43 44 38 38 40 43 44 45 45 46 47 44 38 37 40 38 38 39 34 39 41 41 40 39 39 41 40 37 35
22 19 19 13 27 31 29 31 32 34 35 35 36 34 38 42 41 41 41 42 43 43 44 43 43 44 48 49 45 37 40 40 40 40 36 39 40 40 41 41 40 39 35
25 25 23 22 19 24 31 30 32 34 35 35 36 38 37 40 43 43 41 41 41 43 43 45 44 42 41 41 41 47 46 38 38 36 38 40 39 39 39 40 39 40 36

GFSGL_925_spd_021.txt.gz
Wind_Speed
28 26 25 22 19 18 17 15 14 13 12 10 7 5 6 8 10 11 11 11 10 9 8 8 11 12 12 11 11 16 16 12 7 5 5 17 19 22 25 26 35 38 46
27 25 22 19 17 17 16 16 15 13 11 8 5 4 8 12 12 10 10 9 11 10 9 10 9 11 10 10 12 14 17 11 14 12 13 15 27 33 37 39 37 43 41
24 22 20 18 16 16 17 15 13 12 8 5 4 7 3 4 5 6 5 7 7 8 10 11 11 14 12 11 13 16 15 18 20 20 16 22 29 38 40 37 39 46 39
22 21 20 20 18 17 16 15 11 10 7 2 2 5 2 3 5 0 4 6 6 5 7 10 13 14 13 14 18 21 21 22 23 23 23 26 27 29 39 39 34 35 37
21 22 22 19 16 17 16 12 10 9 5 4 8 5 1 3 4 4 4 3 3 3 5 13 13 10 12 16 23 26 28 24 23 24 22 23 26 23 29 30 35 30 28
20 19 19 17 16 18 14 13 10 8 4 10 8 4 3 4 2 2 2 3 3 6 12 11 11 13 16 17 21 26 24 25 25 23 25 23 21 23 30 31 33 27 10
19 17 20 17 17 15 14 12 11 9 8 11 9 4 3 3 6 2 4 5 7 11 14 17 17 19 19 21 24 24 18 24 22 31 29 27 28 33 34 30 27 23 16
19 21 20 19 15 13 13 13 10 12 11 15 9 4 2 4 5 3 8 9 13 13 16 18 20 21 24 28 30 23 27 22 26 27 30 30 32 31 32 34 28 24 27
24 23 21 19 17 15 13 12 11 12 13 13 8 5 2 3 3 4 8 12 16 16 16 17 18 25 28 31 30 29 30 26 28 32 30 35 36 36 32 32 27 27 16
25 24 22 19 19 17 15 13 11 12 12 12 9 4 3 3 4 5 7 14 18 19 17 19 22 28 28 30 33 30 28 28 28 26 26 30 30 28 29 31 34 27 21
26 24 23 20 19 16 15 13 12 11 11 13 9 6 6 4 5 6 7 11 16 19 19 21 24 25 27 28 33 31 29 26 27 29 27 28 25 26 27 24 29 34 26
26 24 23 20 17 14 12 10 10 12 13 13 11 9 8 5 6 8 7 10 14 19 20 24 24 24 23 27 27 27 25 27 28 29 30 28 28 26 23 19 20 22 18
27 23 20 20 17 15 12 12 11 11 14 15 13 10 9 7 7 9 8 10 14 19 20 23 22 21 20 21 23 26 27 29 27 29 29 27 26 25 19 14 15 18 21
27 22 20 20 18 15 12 11 11 11 14 16 14 11 9 9 10 12 13 13 15 19 23 24 22 21 19 20 25 26 26 29 32 31 29 24 23 22 19 14 14 18 18
27 23 23 22 21 16 13 12 10 9 13 17 16 14 14 12 14 14 14 16 20 22 24 24 23 21 21 22 25 23 24 24 25 29 28 27 24 21 17 16 15 16 21
24 23 26 24 21 18 16 12 9 8 9 10 11 12 12 10 14 14 14 16 20 22 23 20 17 18 20 22 23 24 25 26 24 26 25 25 24 23 20 18 18 17 18
27 25 26 25 23 21 18 14 12 9 8 9 9 10 9 12 14 16 16 17 19 22 22 21 19 20 18 21 20 23 27 29 27 26 25 25 25 23 19 20 21 22 21
27 30 30 29 27 24 22 19 15 13 10 10 14 12 10 11 16 16 18 19 23 22 21 24 23 24 23 21 21 26 29 27 27 28 27 27 27 25 22 22 24 26 28
26 28 28 28 30 29 25 21 19 16 13 12 16 14 14 13 17 17 19 23 26 25 23 22 24 25 24 26 28 29 31 31 30 28 27 26 27 28 29 30 30 31 31
26 28 32 31 28 28 27 24 20 18 16 16 18 19 20 19 22 23 23 25 26 27 27 26 25 25 25 25 26 29 32 32 32 33 32 31 31 31 32 33 33 30 32
22 26 31 29 28 29 29 28 27 24 22 20 22 23 24 28 30 31 32 32 31 31 31 30 28 27 25 27 29 30 32 34 34 35 35 35 34 32 35 35 34 36 34
4 19 26 26 25 27 28 29 28 27 27 27 27 26 26 29 27 31 33 35 35 36 34 34 34 34 32 31 30 32 34 35 36 36 38 38 39 38 37 35 34 35 35
20 8 13 21 19 22 24 29 29 28 27 29 30 30 30 30 34 33 36 38 38 38 38 37 36 37 37 38 38 38 38 40 40 39 39 39 39 38 37 37 37 36 34
20 20 16 10 13 16 21 26 29 30 29 29 31 32 34 35 38 40 41 41 41 42 42 41 41 41 40 39 42 43 43 44 43 42 40 40 40 40 40 38 38 38 38
15 17 16 14 12 11 2 15 23 29 31 30 29 32 36 38 37 39 42 43 43 43 44 45 45 46 45 45 45 46 47 47 47 47 45 44 43 42 40 39 39 38 39
15 16 17 16 17 16 13 12 10 9 20 26 30 32 34 37 40 41 41 42 44 45 46 46 47 47 47 47 48 49 50 50 50 49 48 47 48 46 43 42 41 40 40

GFSGL_925_spd_024.txt.gz
Wind_Speed
25 26 25 24 23 23 21 18 16 14 15 12 11 7 6 6 8 8 10 10 10 10 10 10 9 9 10 10 11 14 12 8 5 4 5 14 14 13 10 11 21 28 32
28 27 24 21 19 18 16 16 15 15 13 11 7 3 4 8 9 10 10 10 10 12 11 11 8 9 9 10 10 12 16 11 12 10 10 15 19 19 23 26 30 35 43
26 24 21 19 16 16 16 16 15 13 10 8 4 2 2 2 4 7 7 6 8 9 10 11 9 11 10 9 10 10 15 15 19 18 12 18 20 31 34 35 40 40 44
23 22 20 18 16 16 15 14 13 10 9 5 4 6 2 3 6 1 4 5 4 5 6 10 11 13 12 12 12 17 21 23 23 22 22 21 21 23 36 36 34 40 36
20 19 17 15 15 17 15 12 12 10 7 7 9 5 3 3 4 4 4 2 3 2 3 8 12 13 11 12 18 22 24 25 25 23 21 22 23 23 29 29 36 34 30
17 14 13 13 13 15 15 12 12 10 6 11 8 5 4 5 3 1 3 2 3 7 10 10 12 12 11 14 16 20 20 27 25 22 24 23 22 23 29 32 35 30 13
13 13 13 14 16 15 14 12 11 8 10 10 6 4 4 5 4 4 5 5 9 12 13 16 16 15 16 18 19 19 20 26 28 28 27 27 26 30 31 29 28 19 16
15 14 15 16 17 14 14 12 10 9 11 10 6 4 4 6 6 8 8 10 13 15 15 17 19 18 20 23 23 25 21 23 28 27 29 29 33 32 29 30 29 30 30
15 16 17 18 14 12 12 12 11 11 10 10 7 4 3 5 8 9 11 13 15 14 14 15 15 18 24 27 29 29 31 25 26 30 34 36 39 39 36 34 29 28 16
17 18 18 16 14 14 13 13 11 10 11 10 7 4 4 5 9 9 11 15 16 16 13 13 16 25 26 29 33 32 30 31 35 33 32 35 36 34 34 29 33 25 19
19 18 17 15 14 11 12 11 10 12 12 10 7 5 5 5 8 9 12 14 16 17 16 20 25 26 25 29 30 34 32 33 33 34 33 31 29 28 25 24 26 32 20
21 18 16 14 13 11 12 10 11 12 14 11 9 7 6 4 8 9 9 11 16 19 20 23 23 22 23 25 29 33 32 31 31 32 30 28 26 24 22 23 21 24 13
20 17 17 14 13 12 12 11 11 12 13 12 9 6 6 6 8 9 10 12 14 19 22 22 22 19 19 21 29 29 29 29 30 26 23 22 24 22 20 19 17 21 17
21 16 15 15 14 12 9 10 10 10 10 12 10 8 8 6 10 12 13 13 14 20 22 22 21 19 21 23 22 22 23 27 30 27 24 25 23 21 20 18 16 17 16
22 18 16 14 14 13 10 9 7 5 7 13 13 11 11 10 11 13 15 17 20 23 25 22 20 19 23 23 21 18 22 23 24 26 27 25 24 23 19 16 14 16 10
21 20 19 19 16 14 11 9 7 5 4 4 6 8 9 6 12 13 14 18 20 24 23 19 18 18 19 20 17 18 20 21 23 26 25 24 23 22 20 17 15 14 14
24 23 21 21 19 17 13 11 9 7 6 6 5 6 5 9 12 13 15 19 22 22 19 17 16 17 18 18 19 18 20 21 20 23 25 25 24 21 20 17 16 15 15
22 24 24 25 23 20 17 15 12 11 9 8 9 8 6 7 11 14 16 20 22 20 20 20 20 21 22 21 18 16 20 23 23 24 25 25 25 23 22 19 18 18 17
21 22 24 25 25 22 18 15 12 9 6 7 12 12 11 10 12 13 16 20 20 18 20 21 23 24 23 22 21 17 21 26 28 27 27 27 26 24 22 21 19 22 20
18 21 23 24 24 22 20 17 14 12 9 8 13 15 17 16 18 19 20 20 21 23 23 22 22 22 25 25 22 21 23 26 28 28 27 27 26 26 22 22 21 20 24
10 14 17 18 21 24 24 23 21 17 15 14 14 17 19 23 23 24 25 25 25 25 25 26 25 24 25 25 24 23 23 23 26 26 25 26 26 24 27 25 23 22 23
8 7 13 18 18 18 22 24 25 23 21 19 17 16 18 22 21 23 25 27 28 28 28 28 29 29 28 28 28 28 28 28 30 33 34 34 33 33 29 25 23 23 25
23 18 4 7 13 15 17 20 22 24 24 24 23 21 20 23 26 27 29 30 30 31 31 31 32 33 33 33 32 31 32 33 35 35 36 35 35 34 34 31 30 28 27
22 23 22 20 7 5 11 16 20 23 24 25 25 26 26 27 29 30 31 32 32 33 34 34 35 35 35 35 37 38 38 37 36 36 37 38 39 38 38 34 32 33 33
20 20 20 20 20 19 18 12 6 11 17 21 23 25 26 28 29 31 32 33 34 35 36 36 36 38 38 39 39 39 40 40 41 42 42 42 42 40 38 36 35 32 33
23 21 21 19 19 19 18 17 18 19 19 14 10 14 21 24 27 29 30 30 32 34 36 37 39 40 40 40 41 42 43 43 43 44 45 43 43 40 37 38 35 34 33

GFSGL_925_spd_027.txt.gz
Wind_Speed
18 18 18 17 17 18 18 17 16 15 14 13 11 10 9 8 9 9 9 9 9 7 7 7 8 9 9 11 12 10 8 5 5 5 5 10 11 11 10 10 14 21 32
19 20 20 19 19 19 17 15 15 15 13 13 11 9 7 7 8 8 8 7 9 9 8 8 9 9 11 10 10 10 11 8 9 12 10 10 14 15 15 20 23 29 36
21 21 19 18 17 16 16 15 15 15 13 11 8 5 5 3 3 6 8 7 8 9 9 10 10 10 11 10 10 11 12 11 12 14 10 14 18 24 27 29 31 35 36
19 19 17 15 15 15 15 15 14 13 11 8 5 5 3 1 1 0 3 5 5 6 7 9 10 11 11 11 10 12 16 15 16 19 19 17 19 21 33 34 31 36 40
18 17 15 14 15 15 14 14 12 11 8 8 8 5 4 3 2 3 4 5 6 5 7 7 9 10 11 11 11 14 21 18 19 21 18 20 22 22 27 30 32 36 31
16 15 14 14 14 14 13 12 12 10 8 9 7 5 4 3 2 1 3 3 6 6 7 9 10 8 10 11 12 16 17 23 22 20 20 23 22 23 30 34 37 31 14
14 13 13 12 14 14 12 13 11 8 11 10 7 5 3 3 3 5 3 4 7 8 12 14 13 12 13 14 16 18 18 21 22 25 24 24 29 32 31 29 31 23 20
11 12 12 13 14 12 12 11 10 7 12 9 7 5 3 5 5 4 6 7 9 10 13 14 17 17 15 17 18 19 18 21 23 21 25 28 31 32 31 32 25 28 28
10 11 13 14 14 12 12 11 9 10 11 8 6 4 4 7 7 6 8 10 11 12 13 15 16 19 21 21 23 25 24 22 23 26 27 30 38 35 34 33 28 28 17
10 11 14 13 12 12 11 10 9 9 10 8 6 5 6 7 6 7 8 12 12 14 13 12 14 21 23 26 24 25 28 28 30 30 30 33 34 32 30 21 28 25 19
11 13 13 11 11 9 10 8 8 9 9 8 6 6 7 7 7 7 8 10 11 12 15 16 21 23 22 24 25 27 29 33 33 33 31 32 29 27 25 20 17 18 18
13 13 12 11 10 9 9 9 8 8 10 7 6 6 6 8 9 8 6 10 12 13 16 23 23 23 24 26 24 30 33 31 27 26 26 26 22 22 17 15 13 14 5
14 12 11 11 9 9 9 9 8 7 9 8 7 5 5 8 10 9 10 13 15 17 18 22 21 21 21 21 30 31 26 24 26 25 24 20 18 16 14 12 12 12 8
14 11 11 10 10 9 7 7 6 7 7 8 7 7 6 8 12 14 15 15 18 22 23 22 20 16 17 26 28 18 17 20 22 23 19 17 15 15 14 14 12 13 9
13 12 10 9 9 10 7 6 4 3 5 8 8 8 8 7 12 14 14 16 22 22 26 19 17 15 17 15 12 11 14 16 16 17 18 18 17 17 14 13 12 13 11
13 11 10 10 10 9 9 8 6 6 7 7 8 7 6 8 13 14 16 19 23 26 18 16 16 18 17 15 15 15 13 14 13 15 16 18 18 17 16 14 12 13 13
13 12 10 10 11 10 10 10 10 7 7 9 10 8 7 12 14 13 15 18 26 23 16 16 15 15 15 14 13 14 14 13 14 15 16 17 17 17 17 16 15 14 13
11 14 13 12 12 10 10 9 8 9 10 9 10 11 10 13 14 15 18 21 23 13 14 14 15 15 15 14 14 14 14 15 16 17 17 17 17 17 17 16 16 16 15
10 10 13 11 12 11 9 8 8 7 7 11 11 12 13 14 14 16 20 17 16 14 13 13 14 14 15 15 14 15 15 16 17 17 17 18 18 18 18 17 16 16 15
7 9 10 9 11 13 12 10 9 8 7 9 12 12 17 19 17 20 18 13 14 14 15 15 16 16 16 16 16 16 16 17 18 19 19 19 19 19 19 19 19 19 19
7 7 10 8 9 11 12 12 11 10 9 8 10 14 20 15 15 16 18 16 16 16 15 15 15 16 16 18 18 18 18 18 20 21 21 22 22 22 23 23 22 22 22
4 8 9 8 8 9 10 10 11 10 10 9 9 10 17 15 11 13 15 17 17 16 16 17 17 17 18 18 18 19 20 22 24 25 25 25 25 25 24 24 24 24 25
5 6 7 7 6 5 7 8 9 10 11 10 9 9 15 16 14 14 14 14 15 16 16 17 18 19 20 20 21 22 23 23 23 23 25 26 26 26 26 27 27 27 27
11 11 12 11 6 5 2 2 3 5 6 7 8 8 9 11 12 13 13 13 14 15 17 19 21 22 22 23 24 25 25 25 23 24 27 26 28 29 30 30 30 30 30
11 11 16 17 15 14 13 12 10 6 4 3 2 3 5 6 8 9 10 11 13 14 16 17 19 21 24 27 26 26 28 33 33 30 27 28 30 30 31 31 32 32 33
14 13 18 22 22 21 20 20 21 21 20 18 17 14 11 7 5 5 6 7 8 10 12 13 15 18 20 21 24 29 32 34 37 38 34 31 31 33 33 34 36 35 34

GFSGL_925_spd_030.txt.gz
Wind_Speed
20 21 22 22 21 21 21 20 19 17 16 14 13 13 12 11 10 10 9 10 12 9 9 9 10 9 11 12 12 11 10 10 8 9 9 7 9 12 11 10 13 19 21
21 21 21 22 21 20 19 17 16 15 14 13 13 12 11 10 10 10 11 10 8 11 12 11 11 12 11 10 11 10 10 9 9 13 9 7 11 11 12 13 16 21 31
22 22 21 20 19 18 17 15 14 14 13 13 12 10 8 7 7 9 8 8 9 11 13 12 11 12 13 12 11 10 10 9 9 14 8 14 15 16 18 19 24 29 30
21 20 19 17 17 16 15 15 14 14 14 12 9 6 5 6 3 4 6 7 8 9 11 11 11 12 13 11 10 10 10 11 14 15 16 14 16 19 25 29 27 31 36
19 18 16 16 15 16 16 15 14 13 12 10 8 5 4 4 2 1 3 7 7 5 7 10 10 9 12 12 10 11 12 14 16 18 14 15 17 16 21 23 28 30 30
19 18 16 15 15 15 14 15 14 13 11 11 7 5 3 3 2 3 3 4 6 7 7 7 7 8 10 13 9 12 16 16 18 19 15 19 18 22 27 28 31 31 13
18 16 15 14 15 15 13 14 15 11 11 10 7 5 3 3 2 3 4 3 3 5 7 10 10 10 10 11 14 15 16 15 17 19 20 22 25 30 32 30 28 23 19
16 14 12 13 15 14 14 16 12 10 11 9 6 5 4 4 5 5 8 7 8 8 8 9 11 12 13 15 16 15 15 16 17 17 19 21 26 29 30 30 25 26 25
14 13 12 14 14 14 15 14 10 10 8 8 6 4 5 5 6 8 9 10 11 9 10 10 11 12 15 16 16 17 16 18 17 20 24 30 32 31 34 30 27 28 21
13 13 13 15 15 15 16 13 10 9 8 7 6 6 6 6 6 9 8 12 12 12 12 10 12 16 17 18 16 17 18 19 26 27 28 30 32 31 27 25 31 26 20
13 15 14 13 13 13 11 10 10 10 9 8 7 7 6 6 8 8 8 9 11 10 10 9 13 16 17 16 16 17 18 23 30 30 28 31 30 26 24 26 26 23 22
15 16 15 13 12 11 10 10 11 10 10 9 8 8 5 6 8 7 8 11 11 12 11 13 18 16 17 17 16 22 25 28 26 25 25 26 26 22 23 19 17 18 10
17 16 14 12 10 9 8 9 11 11 10 10 9 10 8 6 8 8 13 14 15 15 15 17 18 21 18 17 22 26 26 24 23 22 22 21 22 22 20 14 12 9 4
16 14 12 11 9 7 7 7 7 9 8 9 7 10 9 8 11 14 16 16 18 20 20 21 19 15 15 22 25 21 18 20 21 23 21 20 20 18 17 16 15 14 11
17 13 12 10 8 8 6 6 5 6 2 4 8 9 11 9 10 13 14 15 20 19 20 19 17 17 19 18 15 13 17 22 21 20 20 19 18 18 17 17 15 17 12
16 15 11 11 9 8 9 9 7 8 8 8 7 6 7 12 17 16 16 21 21 24 17 17 18 19 17 15 12 17 17 18 19 19 19 19 19 19 17 16 15 16 15
15 14 12 9 9 8 9 11 11 7 9 10 9 10 10 15 17 17 18 21 26 17 14 15 18 18 16 12 13 15 16 17 18 19 18 18 17 16 15 15 15 15 15
14 13 12 10 10 10 8 10 12 12 10 9 10 9 13 16 16 17 20 26 22 11 11 13 15 14 14 14 15 15 15 15 16 16 16 16 15 16 16 16 16 16 17
13 13 9 9 8 9 8 7 8 11 14 13 11 11 16 16 15 18 21 18 15 10 12 13 13 13 13 13 12 14 16 17 17 17 17 16 16 16 16 17 17 17 17
9 8 6 9 11 10 9 9 8 8 9 13 13 14 16 17 15 20 15 12 13 13 13 13 13 13 13 13 15 15 14 14 16 17 17 17 17 18 18 18 19 19 21
13 10 8 8 9 9 9 8 8 9 8 10 11 14 20 15 15 17 17 15 14 14 13 13 14 15 16 17 17 16 17 17 18 19 19 19 19 20 21 21 21 22 23
7 11 11 11 9 8 7 8 8 8 8 9 10 13 17 12 12 12 13 12 12 12 12 13 13 14 14 16 18 19 20 21 22 22 22 23 23 24 24 24 24 25 26
4 7 8 8 8 7 8 7 8 7 7 7 9 12 15 13 8 9 10 10 11 11 11 12 13 14 15 15 16 18 19 20 21 22 23 24 24 25 25 26 26 27 27
11 9 5 2 4 8 7 6 5 2 1 7 8 6 8 9 8 6 5 6 7 9 10 11 12 13 13 15 16 18 19 20 19 20 22 23 25 26 28 28 28 29 29
20 22 19 18 18 18 16 16 14 12 11 9 6 2 2 2 2 2 3 5 6 7 8 9 11 12 13 16 18 18 19 20 23 22 21 23 26 27 28 29 30 31 31
21 28 25 23 24 24 23 23 25 24 22 20 20 19 19 19 17 16 17 17 13 9 6 5 6 6 7 5 9 15 21 22 20 20 23 28 30 30 30 31 32 34 34

GFSGL_925_spd_033.txt.gz
Wind_Speed
20 23 24 25 26 21 20 21 20 19 18 16 15 13 12 12 12 11 7 9 12 11 10 11 11 10 11 8 10 9 10 7 5 6 11 11 12 14 13 9 16 16 16
24 24 24 24 23 22 21 20 18 17 15 13 13 12 12 12 11 10 11 12 12 12 11 12 10 12 10 10 11 9 11 11 14 14 10 8 11 14 14 18 17 18 20
24 24 22 21 21 20 18 17 16 15 13 13 12 12 12 11 11 9 10 12 11 11 13 13 10 10 12 8 8 8 9 10 14 14 8 11 14 14 18 20 21 23 26
23 23 21 19 19 18 16 15 15 14 14 13 11 9 7 5 3 6 8 8 10 11 10 12 11 12 12 12 10 8 10 10 15 13 15 12 12 17 21 27 24 25 27
21 20 19 18 16 15 15 15 14 14 13 11 9 5 3 2 2 1 1 3 4 7 8 10 10 10 12 12 9 10 11 17 15 14 12 12 14 15 18 19 26 28 28
18 17 16 16 16 16 15 14 13 13 10 8 7 5 4 7 3 2 4 3 4 5 7 8 6 7 14 12 4 10 12 16 15 16 10 15 13 18 25 27 30 27 8
19 18 17 16 16 15 15 13 14 10 9 9 8 6 8 6 3 3 5 3 3 5 5 8 8 8 9 9 8 9 14 13 14 16 16 16 19 24 27 27 26 21 19
18 17 16 15 17 15 20 15 13 11 10 7 4 6 9 7 5 6 8 6 7 8 7 7 7 9 9 10 12 12 11 14 13 15 18 18 21 28 27 29 26 27 25
17 15 16 20 16 12 16 16 13 12 10 7 6 6 10 8 8 9 9 9 10 10 7 7 9 10 13 14 14 15 13 15 15 18 19 23 25 27 30 32 29 28 18
16 15 15 15 22 16 17 14 12 11 10 8 8 8 11 9 9 10 9 11 11 13 10 9 10 13 15 10 19 16 17 20 22 21 22 24 28 26 26 25 30 25 22
16 16 18 12 13 14 15 13 11 10 9 8 10 9 10 9 9 8 9 10 11 10 11 9 8 13 13 15 16 17 19 22 22 25 26 27 27 26 19 25 22 27 23
18 21 18 17 14 15 11 10 11 9 9 8 8 9 9 10 9 7 8 9 10 10 9 9 15 13 14 16 15 20 23 24 24 24 24 23 23 22 20 24 26 21 17
22 20 19 17 12 12 11 9 8 10 11 10 9 8 9 8 10 9 10 11 12 13 13 17 15 15 16 13 20 24 24 23 23 21 21 21 24 22 19 20 23 14 10
20 17 16 14 13 11 10 10 8 10 8 8 11 9 13 9 12 11 13 14 16 19 19 20 17 16 17 24 25 19 17 19 19 20 21 22 22 21 18 18 16 13 12
21 16 12 11 9 11 11 9 7 7 4 6 13 14 13 12 11 13 13 15 16 18 22 17 18 18 19 16 19 16 18 21 21 23 22 21 21 20 18 15 14 13 13
14 17 13 15 14 12 14 13 12 10 10 11 8 12 9 15 17 17 17 17 21 23 16 18 18 19 16 13 11 20 19 20 19 21 20 20 20 19 19 19 17 16 13
14 14 12 11 23 15 10 14 12 10 10 10 13 13 14 20 18 17 19 18 23 12 11 14 15 15 14 11 14 15 15 17 21 19 20 19 18 19 18 16 16 16 17
14 13 12 17 10 24 16 8 15 13 12 10 11 14 16 18 18 19 20 22 14 2 8 14 13 12 12 15 17 22 18 18 18 20 22 23 20 17 17 16 17 17 17
15 15 10 17 13 17 22 16 9 14 14 15 13 16 17 17 17 19 22 14 13 9 8 10 11 13 13 12 11 16 21 18 19 23 19 16 13 13 13 16 17 18 17
10 7 1 16 11 14 19 21 20 13 15 14 15 15 15 16 15 18 14 10 8 7 9 9 9 7 8 8 8 10 12 13 13 13 14 14 15 16 17 17 18 18 20
14 11 6 10 11 13 14 11 14 17 18 18 17 16 21 16 16 14 14 13 15 12 11 12 13 13 13 12 18 14 13 15 16 16 16 16 17 17 17 18 18 20 21
20 17 11 8 12 8 11 15 12 9 9 18 20 18 17 13 14 13 12 16 14 10 13 14 19 18 17 15 14 13 14 14 16 17 18 19 20 20 20 21 22 22 23
2 18 13 9 12 11 3 8 9 10 11 12 20 18 13 10 12 14 10 7 6 7 9 9 6 6 8 7 8 10 14 16 17 18 19 20 21 22 23 23 24 24 24
17 20 16 17 19 7 7 5 12 10 33 26 17 16 15 7 2 9 12 6 3 4 4 4 5 5 5 4 3 5 7 13 15 16 18 20 23 23 24 25 26 26 26
19 19 20 20 21 19 20 23 22 23 23 24 26 23 22 22 23 26 25 24 27 28 30 25 20 18 14 12 10 10 7 8 11 17 16 16 19 22 24 25 25 25 26
24 26 26 26 27 24 23 23 22 22 23 22 22 22 22 21 21 20 20 21 21 21 21 23 24 22 19 17 16 14 12 11 10 10 13 15 21 24 25 26 27 29 30

GFSGL_925_spd_036.txt.gz
Wind_Speed
20 20 19 19 24 24 23 22 24 24 23 21 18 17 15 12 10 10 10 14 13 11 11 9 10 11 8 9 9 8 6 6 5 5 11 17 19 20 18 17 18 18 15
26 26 27 26 27 27 25 23 21 22 20 19 17 13 12 12 11 10 9 10 11 12 12 13 13 12 10 11 12 10 9 7 14 13 13 14 16 16 21 23 18 20 18
25 24 24 26 27 26 24 21 19 17 15 15 13 12 13 15 13 12 10 9 9 12 12 12 12 12 10 9 11 9 10 11 14 18 9 13 18 17 18 19 19 20 18
22 22 23 24 25 24 21 18 17 15 14 14 13 14 13 13 10 8 7 9 9 10 9 10 11 14 14 12 12 10 13 15 18 18 16 14 17 20 21 23 21 23 26
26 21 23 24 21 19 18 17 16 16 15 15 11 14 11 7 5 3 3 4 6 10 11 11 10 13 13 14 11 10 17 18 17 16 13 13 14 16 17 18 24 26 25
27 23 22 20 19 18 17 15 16 15 12 18 14 12 9 6 5 4 5 5 6 9 11 12 6 8 10 11 10 13 17 22 17 16 12 14 14 17 24 26 28 24 6
19 19 18 17 19 16 16 15 13 15 15 14 14 12 8 7 5 6 6 7 7 6 8 9 11 12 10 10 11 15 18 12 11 19 19 18 18 24 28 26 22 19 17
20 18 22 24 21 17 18 9 17 15 14 12 13 11 9 8 6 7 9 9 8 7 5 5 11 13 11 11 15 14 16 15 15 15 21 21 22 26 28 24 25 28 26
22 24 21 19 18 17 15 17 16 14 12 10 11 12 10 10 9 9 8 11 11 10 9 12 12 12 11 12 15 20 19 18 13 14 18 19 21 27 31 31 27 28 18
20 17 20 20 19 18 22 17 14 13 11 12 14 14 11 10 8 8 8 11 12 11 12 11 11 13 15 12 19 20 23 22 21 21 20 20 25 27 29 30 32 25 19
14 19 26 20 21 22 21 16 14 12 15 15 18 14 11 8 9 8 9 9 13 11 12 12 15 14 14 15 16 20 23 22 21 24 27 27 27 27 21 23 23 30 24
22 19 23 19 21 23 20 15 12 11 16 16 18 16 10 8 8 8 7 8 9 12 10 14 15 16 16 15 15 20 21 22 25 24 23 22 24 22 21 23 25 26 22
22 21 19 18 16 17 15 14 16 13 15 15 19 16 13 7 9 9 10 9 8 14 13 18 18 16 15 16 20 22 21 22 23 21 19 19 23 21 20 20 17 19 18
22 23 19 15 16 15 12 11 10 11 9 14 15 14 14 12 11 13 14 15 14 19 19 18 19 18 16 23 23 19 20 22 21 21 19 23 22 20 19 21 22 17 16
22 22 21 16 18 12 12 6 7 8 9 12 17 18 16 13 12 13 16 16 19 22 20 19 17 20 23 20 15 17 17 19 19 19 19 18 16 18 15 22 18 19 15
21 22 18 22 19 17 18 19 17 17 13 11 16 13 14 15 20 16 16 17 24 22 16 16 16 16 16 15 14 16 17 16 18 18 20 19 17 17 15 18 16 16 14
17 14 24 20 18 17 18 17 15 18 18 19 16 14 18 22 21 19 18 19 20 9 17 16 16 16 14 15 18 16 17 17 19 17 17 17 19 20 21 20 19 19 17
15 13 22 19 14 19 18 18 17 15 14 14 17 19 20 20 19 22 21 21 13 3 10 15 14 15 15 17 17 18 20 22 19 20 20 22 21 20 20 19 19 16 18
17 24 14 19 18 18 18 16 15 17 19 16 19 19 18 18 19 19 22 11 10 9 8 11 10 10 12 16 17 20 18 21 22 22 21 21 24 21 22 19 18 20 18
24 23 17 26 25 20 21 15 18 20 20 20 17 16 18 19 17 18 15 8 9 8 9 10 7 6 5 7 10 17 16 18 19 20 22 25 23 18 8 12 16 16 18
14 24 13 10 25 22 21 17 19 19 20 20 21 25 24 18 17 18 15 12 11 13 14 10 14 12 13 13 14 17 21 20 20 17 21 18 14 14 16 16 16 19 23
3 14 5 8 21 25 21 25 20 18 21 22 21 27 28 20 19 18 18 15 14 13 13 16 16 15 14 15 18 15 15 17 19 20 17 16 16 19 20 20 22 21 21
14 7 6 6 23 22 18 18 24 28 23 22 21 26 25 7 3 3 12 11 4 10 1 6 4 2 4 3 6 3 8 11 10 21 17 15 20 20 20 23 24 23 24
24 23 23 28 31 29 30 24 29 36 28 22 17 21 23 25 27 27 28 29 31 29 21 27 26 24 20 19 17 16 12 8 4 3 3 12 18 18 20 21 22 23 23
20 20 24 23 23 26 26 25 26 29 28 27 26 25 24 23 25 26 24 27 31 32 29 28 26 24 25 23 21 19 15 11 11 10 11 11 12 14 17 18 20 21 21
27 29 28 27 28 27 27 25 25 25 26 26 25 25 24 23 22 24 25 26 27 29 27 26 26 26 26 27 25 25 24 18 14 13 13 14 14 14 16 19 22 23 23

GFSGL_925_spd_042.txt.gz
Wind_Speed
22 21 22 22 22 22 23 24 26 26 23 24 24 20 18 16 16 18 18 16 15 15 16 16 14 11 10 8 9 9 9 9 4 3 4 11 12 11 12 14 15 15 15
26 27 25 23 23 22 24 25 24 23 21 22 19 18 19 19 21 18 16 16 16 19 17 15 14 12 10 9 11 10 9 8 8 6 15 10 10 15 13 18 18 16 15
29 27 26 26 26 27 27 24 23 23 21 21 21 21 21 22 19 18 16 15 17 19 17 16 14 13 13 14 13 11 8 7 13 16 10 13 16 18 18 17 15 14 13
29 27 26 26 29 29 29 30 27 25 25 23 23 22 21 21 19 16 15 14 15 17 17 16 14 12 16 16 14 13 12 15 15 20 17 14 15 17 19 19 18 16 17
26 24 24 24 28 27 27 28 27 28 28 25 23 21 20 17 15 15 14 13 14 15 16 16 16 14 16 16 17 16 18 20 17 16 14 12 12 14 16 14 19 19 16
26 24 28 29 30 32 30 27 28 28 25 21 18 18 19 17 14 14 13 10 11 12 15 14 13 13 13 14 16 16 22 26 20 16 10 14 12 16 19 21 23 15 5
28 25 27 28 29 31 30 28 25 24 23 22 21 19 18 15 12 10 10 9 9 10 13 14 11 13 11 15 15 16 23 24 26 29 24 21 18 21 25 22 17 16 9
28 27 27 28 28 28 26 22 21 26 27 24 18 16 15 14 11 9 9 9 8 10 13 14 10 7 13 17 20 20 20 20 21 21 25 26 22 22 25 23 24 19 22
26 26 25 24 26 25 25 26 25 28 24 21 17 15 14 13 10 10 10 12 10 9 14 15 15 17 15 20 23 23 18 14 12 13 19 22 19 21 27 27 23 23 8
24 25 29 24 25 25 28 27 27 24 22 19 16 13 13 14 9 9 10 14 14 13 13 15 17 17 17 19 24 24 21 17 15 16 19 18 18 20 23 26 28 22 13
27 30 31 30 29 28 30 28 26 23 23 21 18 14 13 12 10 9 11 13 17 17 17 17 15 12 15 16 19 20 20 19 17 18 19 20 21 22 24 23 26 27 21
28 30 31 31 29 30 28 25 25 25 25 21 18 16 13 12 11 10 11 12 14 17 16 16 14 14 15 15 16 16 18 17 20 21 21 21 22 23 22 21 22 22 23
28 29 29 30 27 29 27 27 26 26 23 16 13 14 14 12 11 11 12 12 13 16 16 18 17 15 13 12 16 19 19 19 21 19 17 17 20 22 20 18 17 17 17
26 28 27 24 24 28 29 27 28 24 21 16 13 14 14 13 12 13 14 14 14 16 19 20 19 17 14 19 21 19 18 18 21 19 17 18 19 18 17 17 15 16 16
27 25 19 26 26 21 20 20 25 24 24 22 18 17 18 14 14 14 16 16 17 21 23 21 20 22 21 18 16 15 15 18 20 18 19 19 18 16 17 15 14 19 14
21 19 21 25 23 22 21 15 17 19 21 19 16 16 15 16 16 14 13 16 19 21 18 18 16 17 16 15 14 14 14 17 18 18 19 19 18 15 15 15 14 19 19
23 24 24 23 21 22 20 20 16 13 16 17 13 15 18 20 16 15 18 20 17 15 16 15 14 14 15 13 13 14 14 15 16 18 19 18 18 16 15 17 18 17 16
28 27 24 21 23 21 20 19 20 19 17 19 19 21 21 19 17 20 20 16 12 12 13 17 17 18 15 13 13 13 13 13 15 17 16 18 17 16 15 18 20 19 18
27 23 23 23 23 24 23 21 22 21 21 24 24 23 22 21 20 23 18 10 12 14 15 15 15 15 14 14 13 12 14 14 17 16 18 19 17 17 17 17 18 19 20
27 26 25 24 23 24 22 21 20 21 21 20 20 24 25 23 23 22 11 4 3 7 10 12 11 12 13 13 14 13 15 15 17 16 18 18 18 18 20 20 20 22 24
25 25 22 24 23 23 19 19 18 17 17 14 14 15 19 19 20 15 5 7 8 7 3 3 4 8 9 12 13 12 15 16 18 18 19 20 21 22 23 24 25 24 27
24 23 26 21 23 19 20 22 21 17 18 19 20 18 14 15 16 10 6 9 8 9 11 9 9 10 9 9 8 10 13 11 11 13 14 16 19 21 25 27 28 27 25
23 26 22 19 22 26 24 25 24 24 22 23 21 13 15 15 13 14 13 12 12 13 12 14 14 12 8 7 7 8 11 10 7 6 2 1 4 9 10 6 5 6 5
28 28 29 26 23 25 26 25 23 26 27 19 21 22 22 20 20 19 17 18 20 21 21 20 20 19 17 17 17 12 9 6 5 2 1 3 7 11 11 11 10 10 10
32 32 31 31 26 26 28 29 28 28 26 26 25 26 25 26 24 24 24 25 26 26 27 27 26 25 23 21 19 17 14 12 12 11 11 11 13 13 13 12 11 13 13
30 27 28 35 30 24 23 24 30 31 30 28 28 29 29 29 27 28 29 29 30 31 30 30 29 27 26 26 23 21 19 16 14 12 14 18 19 20 20 19 18 17 17

GFSGL_925_spd_045.txt.gz
Wind_Speed
33 38 38 37 34 29 27 23 26 23 19 25 25 22 18 19 19 16 17 17 18 17 15 14 13 12 13 11 10 11 10 8 3 2 2 3 5 7 10 11 12 12 12
29 32 31 29 27 25 22 25 23 21 23 27 25 21 21 21 17 18 18 17 18 17 15 14 14 13 12 10 9 9 9 8 6 4 10 6 9 7 10 12 13 12 11
23 27 27 28 28 26 24 20 20 24 25 24 22 21 22 20 20 19 18 17 16 16 16 16 15 14 13 13 12 10 8 7 9 10 8 8 13 12 14 14 13 12 10
26 29 30 29 26 24 23 24 24 25 24 24 23 22 21 20 21 19 17 15 15 15 16 16 15 16 16 15 14 13 10 9 13 15 14 14 13 15 17 19 15 12 13
23 24 21 26 26 26 27 26 27 27 26 26 24 22 22 23 20 17 14 15 13 14 16 17 16 15 14 16 16 16 14 16 19 15 12 12 12 14 14 13 17 16 14
19 17 25 26 26 27 29 32 30 28 27 26 24 22 20 19 17 14 14 14 12 14 16 16 15 15 15 15 16 16 18 21 15 14 9 13 12 15 17 20 19 13 4
21 21 24 28 27 27 30 33 34 30 27 25 21 19 18 15 14 13 13 11 11 12 13 13 12 12 12 16 15 14 17 17 20 25 22 19 17 20 23 21 16 16 7
20 23 27 28 29 30 31 32 32 28 25 22 19 18 17 15 13 11 10 8 9 9 11 12 12 12 12 15 18 17 17 16 16 19 21 23 22 20 20 23 22 16 18
22 25 29 30 27 28 29 29 29 28 24 23 20 18 15 12 10 9 10 10 9 9 10 12 12 11 8 15 19 18 16 15 13 12 12 17 16 19 21 25 22 20 6
28 28 28 29 29 29 31 30 27 27 24 21 17 13 13 13 10 10 11 12 11 10 12 12 10 13 12 14 19 21 19 14 14 12 11 15 16 14 19 22 24 18 13
29 30 28 32 32 30 28 28 29 26 23 19 18 15 13 10 10 10 10 11 13 13 16 15 13 9 9 11 14 17 17 17 15 15 18 19 18 19 21 21 23 22 19
29 30 32 32 29 30 30 28 27 26 22 17 17 15 11 10 10 9 8 10 13 18 18 16 15 12 11 11 12 12 15 14 15 18 19 18 18 19 18 17 19 18 18
30 30 29 29 29 30 31 26 25 22 20 16 14 13 12 10 9 9 10 9 10 15 16 16 14 13 13 11 10 14 15 13 16 17 17 16 17 18 16 14 13 13 13
26 26 24 26 25 27 27 27 26 20 16 15 14 13 13 11 11 11 11 10 11 16 18 18 17 14 13 16 18 14 12 14 16 15 15 15 15 15 16 15 14 14 13
27 25 23 27 28 25 23 19 22 21 22 20 16 16 15 13 12 13 14 14 16 19 20 19 18 19 19 17 14 12 11 12 14 15 15 14 14 14 14 13 13 15 9
23 21 24 26 23 25 23 16 16 16 15 13 14 15 14 13 13 13 13 13 15 20 19 19 16 15 15 13 12 10 9 10 12 12 14 14 14 13 13 12 11 14 14
23 23 24 25 23 19 16 18 15 10 12 11 12 13 15 17 14 13 15 18 18 17 18 16 15 13 13 13 12 11 11 10 12 12 14 15 14 13 13 13 12 13 15
26 28 25 22 22 20 20 17 18 17 16 18 17 18 17 15 16 18 17 14 12 10 13 15 15 14 12 12 12 11 11 11 12 12 14 15 14 14 12 12 15 13 14
26 24 24 21 20 20 19 19 17 20 20 23 22 20 17 17 19 19 10 9 9 8 10 12 13 13 11 9 10 10 12 13 14 14 14 14 14 14 12 12 13 15 14
25 25 24 26 23 21 20 17 17 20 19 19 17 20 18 19 18 12 10 9 7 7 8 9 9 10 9 9 9 9 10 10 12 12 13 14 15 14 15 13 14 16 19
24 24 27 25 22 21 19 18 18 18 18 17 19 19 18 21 18 10 11 14 10 9 5 5 4 6 5 6 9 9 10 10 11 12 11 13 15 15 15 16 19 21 22
24 24 24 25 25 23 21 21 19 19 19 22 21 19 17 18 14 11 13 15 15 14 12 11 11 10 7 7 8 9 10 10 9 10 11 13 15 18 19 20 22 24 24
27 26 23 23 25 27 22 19 19 19 19 18 20 20 19 18 16 16 16 16 16 17 16 15 15 14 11 8 5 5 8 9 8 7 8 8 10 14 17 16 11 3 3
30 30 29 26 25 24 22 21 23 23 20 21 22 22 22 20 19 18 18 19 20 21 21 22 22 21 18 17 15 11 8 5 4 2 2 5 8 10 12 12 10 10 10
30 29 27 29 26 27 26 24 25 27 25 23 24 24 23 22 22 22 24 25 26 27 27 26 27 26 25 25 23 20 17 16 14 13 13 13 14 14 13 14 14 15 15
28 30 30 28 30 31 30 28 26 27 26 26 26 25 25 26 26 27 28 29 31 32 32 31 30 29 29 28 26 24 24 22 21 19 20 20 21 20 18 17 17 16 15

GFSGL_925_spd_048.txt.gz
Wind_Speed
25 27 27 30 33 34 36 34 27 23 22 23 21 21 24 24 22 19 18 19 17 17 17 16 14 13 14 12 11 10 8 8 3 2 3 6 7 6 7 10 17 12 13
27 27 28 30 30 29 31 28 24 22 24 22 22 26 26 23 21 21 22 18 18 19 17 15 15 14 13 12 11 10 10 9 5 4 6 6 9 8 10 14 15 14 13
25 23 24 27 29 28 26 23 22 25 25 23 27 29 25 23 24 23 19 19 18 18 17 17 16 15 14 13 12 11 10 9 8 8 7 10 11 12 13 13 13 13 11
22 20 21 27 27 25 23 24 25 25 25 27 29 26 24 25 23 19 19 19 17 16 16 15 15 16 15 15 13 13 11 9 9 12 13 10 10 13 16 17 15 13 12
21 20 22 24 25 27 27 27 26 26 27 29 27 23 23 23 21 21 18 15 14 14 15 15 14 13 13 13 14 15 13 13 14 15 12 11 10 14 13 12 16 15 13
21 22 21 22 24 24 26 27 28 26 26 26 25 25 24 22 20 17 14 14 13 13 15 15 14 12 12 11 15 15 15 17 14 12 9 12 11 14 15 18 18 11 4
22 22 24 24 22 25 29 31 29 28 28 28 25 25 22 20 18 15 14 13 13 12 13 14 13 12 13 12 15 13 14 14 16 22 20 17 17 19 21 16 11 10 7
19 25 27 27 25 29 29 29 31 30 29 28 25 22 20 16 15 13 13 11 9 9 9 11 11 11 12 18 18 16 15 14 14 15 17 19 18 21 22 17 16 14 15
18 21 27 30 28 28 28 30 32 32 27 24 22 18 16 15 13 12 11 10 9 8 8 9 10 12 12 15 19 18 16 14 11 9 11 11 12 20 21 21 16 17 6
21 22 26 30 31 30 33 35 30 29 27 24 20 16 15 15 12 11 10 11 10 11 11 11 10 10 9 9 18 20 19 15 14 14 11 11 13 17 12 21 17 13 10
27 27 27 31 32 37 35 33 31 30 27 22 20 16 15 12 12 11 10 9 11 14 14 12 10 8 10 12 15 16 17 17 16 17 18 18 18 17 15 18 20 17 14
31 29 30 31 30 33 35 30 31 29 26 21 20 16 12 11 12 11 9 8 8 14 16 15 15 13 12 12 13 12 15 16 16 18 20 20 20 19 16 14 17 14 14
25 27 30 31 31 34 31 29 25 23 22 18 15 14 13 12 13 11 11 12 12 17 18 18 15 13 13 14 12 17 16 13 15 17 16 16 16 16 13 12 12 11 8
34 24 29 30 26 26 29 30 25 19 18 16 15 13 14 13 13 13 12 12 12 15 16 17 16 14 13 18 17 13 13 14 16 17 16 15 14 14 15 13 12 11 10
29 26 26 28 29 29 24 17 20 20 22 20 15 16 16 13 12 13 12 14 15 19 20 19 18 19 20 16 14 13 12 13 15 16 16 15 15 15 15 14 13 13 8
25 24 23 25 25 28 26 22 18 18 17 15 17 18 13 13 13 12 12 13 16 18 19 19 17 18 17 16 15 13 11 10 12 14 13 14 14 13 13 12 10 12 10
24 24 25 26 22 20 18 21 17 18 15 17 13 13 15 15 14 12 11 12 15 15 19 16 14 14 16 15 13 12 11 10 11 11 13 12 12 12 12 12 10 8 9
28 29 25 22 22 18 18 18 20 19 16 18 18 19 18 16 15 16 15 14 12 13 16 15 13 12 14 13 11 10 10 10 9 9 10 11 11 11 10 10 9 8 8
27 22 25 24 22 24 20 19 20 21 20 23 25 21 18 20 19 12 10 11 12 12 12 13 12 12 11 9 9 8 9 9 9 9 10 10 10 10 8 8 10 11 10
26 29 27 24 20 20 19 20 21 22 20 19 22 23 24 22 13 13 12 10 9 9 10 10 10 10 8 7 8 8 8 9 9 9 9 9 9 9 9 7 7 7 9
24 26 28 21 19 20 22 22 23 21 21 19 23 23 23 18 14 18 17 16 15 13 10 8 7 6 5 5 5 5 7 7 8 9 8 7 8 9 8 9 10 11 11
26 23 21 21 22 23 23 24 23 23 22 22 22 21 20 18 19 20 21 19 17 17 15 15 14 12 10 8 6 5 5 4 4 4 4 5 7 10 12 13 13 14 13
26 25 22 20 21 27 24 23 24 23 23 22 23 24 21 20 20 19 18 18 19 19 18 17 17 15 13 11 9 8 7 6 4 2 2 2 2 4 7 7 6 2 5
25 26 25 22 21 23 23 23 24 24 24 24 25 25 24 22 19 19 20 21 23 24 24 24 23 21 19 18 16 13 11 9 7 6 5 6 9 10 13 14 14 12 11
25 24 24 25 23 24 25 23 25 26 26 27 27 27 26 24 24 23 25 27 29 30 30 30 30 29 28 27 25 21 16 16 16 15 16 17 18 18 19 19 17 17 16
29 26 26 29 27 27 27 27 27 28 27 27 28 27 27 28 28 29 30 31 33 34 34 34 33 33 32 30 26 23 22 21 22 21 21 21 23 23 20 19 19 20 18